Regional Weather Roundup
Issued by NWS Binghamton, NY

Home | Current Version | Previous Version | Text Only | Print | Product List | Glossary On
Versions: 1 2 3 4 5 6 7 8 9 10 11 12 13 14 15 16 17 18 19 20 21 22 23 24 25 26 27 28 29 30 31 32 33 34 35 36 37 38 39 40 41 42 43 44 45 46 47 48 49 50
000
ASUS41 KBGM 280810
RWRBGM
RWRBGM
BINGHAMTON REGIONAL WEATHER ROUNDUP
NATIONAL WEATHER SERVICE BINGHAMTON NY
400 AM EDT THU MAY 28 2015

Note: "fair" indicates few or no clouds below 12,000 feet with no
significant weather and/or obstructions to visibility.

* = Station(s) that does not report precipitation, such as rain,
snow, etc, also no thunder or fog.

!NYZ009-015>018-022>025-036-037-044>046-055>057-062-280900
...CENTRAL NEW YORK...

CITY           SKY/WX    TMP DP  RH WIND       PRES   REMARKS
BINGHAMTON     PTCLDY    64  63  96 S7        30.11S FOG
CORTLAND       MOCLDY    63  61  94 CALM      30.10R
DANSVILLE      CLOUDY    63  60  90 SE5       30.10R
ELMIRA         MOCLDY    66  60  81 W12       30.10R
ITHACA         CLOUDY    66  60  81 CALM      30.10R
MONTICELLO     CLOUDY   N/A N/A N/A CALM      30.15S VSB<1/4
NORWICH        CLEAR     63  63 100 S3        30.10S
ONEONTA        CLEAR     64  63  94 SW3       30.12S
PENN YAN       CLOUDY    65  59  81 SW9       30.07S
ROME           MOCLDY    63  61  93 CALM      30.05S
SIDNEY         MOCLDY    66  66 100 CALM      30.10S
SYRACUSE       MOCLDY    70  60  70 SW6       30.04R
$$

!PAZ038>040-043-044-047-048-072-280900
...NORTHEAST PENNSYLVANIA...

CITY           SKY/WX    TMP DP  RH WIND       PRES   REMARKS
HAZLETON       CLEAR     64  61  88 CALM      30.18S
SCRANTON       CLEAR     64  61  90 CALM      30.12S FOG
$$
&&
KEY
WCI = WIND CHILL INDEX
VSB = VISIBILITY
HX  = HEAT INDEX
$$


USA.gov is the U.S. government's official web portal to all federal, state and local government web resources and services.